Temp
6 6 6 6 6 6 6 6 6 6 6 6 6 6 6 6 6 6 6 5 5 5 4 4 3 3 3 2 2 1 1 1 1 1 0 0 -2 -2 -2 -2 -2 -2 -2 -2 -2 -2 -2
6 6 6 6 6 6 6 5 5 5 6 6 6 6 6 6 6 6 6 5 5 5 4 4 4 3 2 2 2 1 1 1 1 0 -0 -0 -1 -2 -2 -2 -3 -2 -2 -2 -2 -2 -2
5 5 6 6 5 5 5 5 5 5 5 5 5 6 6 6 6 6 6 5 5 5 4 4 4 3 3 2 2 1 1 0 0 -0 -0 -0 -1 -1 -2 -3 -2 -2 -3 -2 -1 -2 -2
5 5 5 5 5 5 5 5 5 5 5 5 5 5 6 6 6 6 6 6 5 5 4 4 4 4 3 2 2 1 1 0 1 0 0 0 -0 -1 -1 -1 -1 -2 -2 -2 -1 -1 -2
5 5 5 5 5 5 5 5 5 5 5 5 5 5 6 6 6 6 6 5 5 5 5 4 4 4 3 2 2 2 1 1 0 1 0 0 0 -0 -1 -1 -2 -1 -2 -2 -1 -1 -1
4 5 5 5 5 5 5 5 5 5 5 5 5 5 5 6 6 6 6 5 5 5 5 4 4 3 4 3 2 2 1 1 1 1 1 0 -0 -1 -1 -1 -1 -1 -1 -1 -1 -1 -2
4 4 5 5 4 5 5 5 5 5 5 5 5 5 5 5 5 5 5 5 5 5 4 4 4 4 3 3 3 2 2 2 2 2 1 -0 -0 0 1 1 -0 -2 -1 -1 -1 -1 -2
4 4 4 4 4 4 4 5 5 5 5 5 5 5 5 5 5 5 5 5 5 5 5 5 4 4 4 3 3 3 2 2 2 2 1 0 1 1 1 1 0 -0 0 1 1 0 -1
4 4 4 4 4 4 4 4 4 4 5 5 5 5 5 5 5 5 5 5 5 4 5 5 4 4 4 4 3 3 2 2 2 2 1 1 1 1 1 1 0 1 1 1 0 0 0
3 3 4 4 4 4 4 4 5 4 4 4 5 5 5 5 5 5 5 5 5 4 4 5 5 4 4 4 4 3 3 2 2 2 2 2 2 2 2 1 1 1 1 1 1 -0 0
3 3 3 4 4 4 4 4 5 5 5 5 5 5 5 5 5 5 5 5 5 4 2 5 5 4 4 4 4 4 3 3 3 3 2 2 2 2 2 2 2 2 2 2 1 1 1
3 3 4 4 4 4 4 4 4 4 5 5 5 5 5 5 5 5 5 5 5 4 4 5 5 4 5 5 4 4 3 3 3 3 3 3 2 2 2 2 2 2 2 2 3 1 -1
3 3 4 4 4 4 4 4 4 4 4 5 5 5 5 5 5 5 5 5 5 4 5 4 4 4 5 4 4 4 3 3 1 2 3 3 2 2 2 2 2 2 2 1 -0 -1 -0
3 3 3 3 3 4 4 4 4 4 4 4 4 4 5 4 4 5 4 5 5 5 5 5 5 4 4 4 4 3 3 2 2 2 1 1 2 2 2 2 1 2 1 0 -1 -2 -1
2 2 3 3 3 3 3 3 3 4 4 4 4 5 4 4 4 4 4 4 5 5 5 4 4 4 3 3 3 3 2 2 2 2 1 0 2 2 2 2 1 2 1 1 0 2 -0
2 2 3 3 3 3 3 3 3 3 3 4 4 4 4 4 4 4 4 4 4 4 4 4 4 4 3 3 3 2 2 2 2 2 1 0 0 2 2 2 1 1 1 1 1 -2 -0
1 2 2 2 2 3 3 3 2 3 2 3 3 3 4 4 4 4 4 4 5 5 4 4 4 4 4 3 3 3 3 2 2 2 1 1 -0 3 2 2 2 1 1 1 1 1 -2
1 1 1 2 2 2 2 2 2 2 2 2 2 2 3 3 3 3 4 4 4 4 4 4 4 4 4 3 3 3 3 2 2 1 1 1 -0 1 3 2 2 2 1 0 1 1 1
0 0 0 1 1 1 1 2 2 2 2 1 1 2 2 2 2 3 3 3 3 4 4 3 3 3 3 3 3 3 3 3 2 1 1 0 -0 -1 2 2 1 0 0 -0 -1 -1 -0
0 0 0 0 1 1 1 1 1 1 1 1 0 0 1 2 2 2 3 3 3 3 3 3 3 3 3 3 3 3 3 2 2 2 1 -0 -0 0 0 1 0 0 1 -0 -1 -1 0
-1 -1 -1 -1 -1 -0 0 0 0 -0 -0 -0 -0 -0 -1 0 1 1 2 2 1 2 3 3 3 3 3 2 2 2 2 2 2 2 1 -0 -0 -0 -1 -0 -0 -0 1 1 -0 0 -1
-1 -1 -1 -1 -2 -2 -2 -2 -1 -1 -2 -2 -2 -2 -2 -1 -0 -0 1 1 1 2 3 3 2 3 2 2 2 2 2 1 1 2 1 -1 -1 -1 -0 -0 -0 -1 1 1 -0 -1 -1
-2 -3 -2 -2 -2 -2 -2 -4 -4 -3 -3 -3 -4 -4 -4 -2 -3 -2 -1 -0 0 0 1 2 2 1 1 3 2 1 1 1 0 0 0 -2 -2 -3 -1 -1 -1 -0 1 1 0 -0 -1
-3 -3 -3 -3 -3 -4 -4 -4 -4 -5 -5 -4 -5 -6 -6 -5 -5 -3 -2 -3 -2 -2 -1 -0 0 0 1 1 1 0 0 0 1 1 0 -2 -3 -4 -3 -2 -3 0 0 1 0 -0 -1
-4 -4 -4 -4 -4 -4 -4 -5 -5 -6 -6 -6 -6 -7 -7 -7 -6 -5 -4 -4 -3 -3 -2 -1 -1 -1 -0 -0 -0 -1 -0 -0 1 1 1 0 -3 -3 -3 -3 -1 1 -0 -0 -1 -0 -0
-7 -6 -6 -6 -6 -5 -6 -6 -6 -6 -6 -6 -6 -7 -8 -8 -2 -6 -6 -5 -5 -4 -3 -3 -1 -1 -1 -1 -1 -2 -1 0 0 0 1 0 -1 -3 -4 -4 -2 0 -0 -0 -1 -1 -1
-9 -8 -8 -8 -8 -8 -7 -8 -7 -7 -7 -7 -7 -8 -8 -8 1 -7 -7 -6 -5 -5 -4 -4 -3 -3 -2 -2 -2 -2 -2 -1 -0 -0 0 -0 -2 -2 -3 -4 -2 -0 -0 -1 -2 -2 -2
-10 -10 -10 -10 -10 -9 -9 -9 -9 -9 -8 -8 -7 -8 -9 -9 -1 -5 -6 -5 -5 -6 -5 -4 -3 -3 -3 -3 -3 -3 -2 -1 -1 -1 -0 0 -1 -2 -4 -5 -4 0 -1 -1 -1 -2 -2
-13 -12 -12 -13 -13 -12 -12 -11 -11 -11 -10 -9 -8 -9 -10 -10 -3 -6 -4 -4 -6 -6 -6 -5 -4 -3 -2 -2 -2 -2 -2 -1 -1 -1 -1 -1 -0 -0 -1 -0 -0 -1 -2 -2 -2 -3 -3
Height
3168 3168 3167 3167 3166 3165 3165 3164 3163 3162 3160 3158 3156 3154 3152 3150 3148 3146 3144 3142 3141 3139 3136 3132 3128 3125 3122 3117 3117 3114 3111 3108 3105 3101 3098 3095 3091 3090 3088 3088 3088 3088 3087 3086 3085 3085 3085
3168 3168 3168 3168 3168 3166 3165 3164 3163 3161 3160 3159 3157 3154 3152 3150 3148 3146 3143 3141 3140 3139 3136 3133 3129 3126 3123 3120 3118 3115 3112 3108 3105 3102 3099 3096 3091 3089 3088 3087 3087 3086 3084 3083 3082 3080 3081
3168 3168 3168 3168 3167 3167 3166 3164 3163 3161 3160 3158 3156 3154 3152 3150 3147 3145 3143 3141 3140 3138 3136 3133 3130 3126 3124 3121 3117 3115 3112 3109 3106 3103 3100 3097 3095 3092 3089 3087 3085 3084 3081 3080 3078 3077 3076
3168 3168 3168 3167 3167 3166 3165 3164 3163 3161 3159 3157 3156 3155 3152 3150 3148 3145 3143 3140 3138 3137 3136 3133 3130 3126 3123 3120 3117 3115 3112 3110 3107 3104 3101 3098 3096 3094 3090 3088 3086 3082 3082 3079 3077 3075 3074
3168 3168 3168 3168 3167 3166 3165 3164 3163 3161 3159 3157 3155 3154 3152 3150 3147 3145 3143 3140 3138 3136 3135 3133 3131 3127 3123 3121 3119 3115 3112 3110 3107 3104 3102 3098 3096 3094 3090 3088 3085 3083 3080 3078 3074 3073 3071
3168 3168 3167 3167 3166 3166 3165 3164 3162 3160 3158 3156 3155 3153 3151 3149 3147 3145 3142 3139 3137 3135 3134 3133 3131 3129 3124 3122 3118 3116 3113 3110 3108 3104 3102 3098 3095 3092 3092 3091 3087 3084 3081 3077 3073 3069 3066
3167 3167 3166 3166 3166 3165 3164 3163 3162 3160 3158 3157 3155 3153 3151 3149 3147 3144 3142 3139 3139 3136 3133 3132 3131 3128 3124 3122 3118 3116 3113 3110 3108 3104 3101 3100 3099 3097 3093 3089 3086 3083 3080 3075 3072 3068 3065
3165 3165 3166 3166 3166 3165 3164 3163 3161 3159 3158 3156 3155 3153 3152 3149 3146 3144 3141 3138 3135 3135 3133 3132 3130 3128 3124 3121 3118 3115 3113 3111 3107 3104 3102 3102 3098 3096 3091 3087 3083 3080 3077 3073 3071 3068 3064
3164 3164 3164 3164 3164 3163 3163 3162 3160 3158 3157 3155 3154 3153 3151 3150 3146 3144 3141 3138 3134 3132 3131 3131 3129 3127 3124 3122 3118 3115 3113 3110 3107 3104 3102 3099 3097 3094 3090 3086 3083 3079 3076 3072 3070 3066 3062
3163 3163 3163 3163 3162 3162 3161 3160 3159 3157 3155 3154 3152 3151 3150 3148 3149 3144 3141 3137 3134 3131 3131 3132 3129 3126 3125 3120 3118 3115 3112 3111 3106 3103 3100 3098 3095 3092 3089 3086 3083 3077 3074 3070 3066 3065 3061
3161 3161 3161 3161 3160 3160 3159 3158 3158 3157 3155 3152 3151 3149 3148 3146 3146 3144 3142 3138 3134 3132 3132 3131 3128 3126 3123 3121 3118 3116 3112 3108 3106 3103 3101 3098 3093 3090 3087 3085 3082 3078 3072 3068 3064 3062 3061
3158 3158 3158 3158 3157 3157 3157 3156 3155 3154 3154 3152 3150 3148 3146 3145 3144 3142 3140 3138 3136 3135 3130 3129 3127 3124 3122 3119 3116 3114 3112 3109 3105 3101 3098 3093 3091 3089 3086 3084 3081 3076 3069 3064 3062 3063 3061
3154 3153 3153 3154 3154 3153 3153 3153 3152 3151 3150 3150 3148 3147 3145 3143 3142 3141 3139 3138 3137 3133 3134 3131 3127 3123 3120 3118 3115 3113 3110 3108 3107 3102 3096 3093 3090 3088 3085 3083 3079 3077 3073 3067 3067 3065 3063
3148 3149 3149 3149 3149 3149 3148 3148 3148 3147 3147 3146 3145 3145 3144 3142 3140 3139 3138 3138 3136 3132 3130 3129 3126 3123 3120 3118 3115 3112 3110 3107 3106 3105 3099 3095 3089 3088 3086 3083 3080 3077 3076 3077 3077 3072 3065
3143 3142 3142 3142 3142 3142 3142 3143 3143 3143 3142 3142 3141 3141 3141 3139 3138 3137 3137 3134 3132 3130 3130 3128 3125 3122 3121 3118 3116 3112 3108 3107 3106 3104 3104 3098 3092 3088 3086 3083 3082 3078 3077 3077 3075 3069 3067
3136 3136 3136 3136 3136 3137 3136 3136 3137 3137 3136 3136 3136 3136 3136 3135 3134 3133 3133 3131 3129 3128 3127 3126 3124 3123 3120 3118 3116 3112 3108 3107 3106 3104 3102 3100 3092 3088 3086 3083 3082 3080 3080 3077 3076 3076 3071
3128 3127 3128 3128 3129 3129 3129 3129 3130 3130 3130 3130 3130 3130 3130 3129 3129 3128 3127 3125 3125 3124 3124 3123 3121 3120 3119 3116 3114 3112 3109 3106 3103 3102 3100 3097 3096 3089 3086 3083 3081 3080 3080 3079 3077 3075 3075
3118 3119 3119 3120 3120 3121 3120 3121 3121 3123 3124 3123 3123 3122 3123 3123 3125 3122 3121 3120 3120 3120 3120 3119 3117 3115 3114 3113 3112 3109 3107 3105 3102 3100 3097 3095 3093 3087 3084 3081 3081 3080 3079 3079 3078 3075 3072
3109 3109 3110 3110 3110 3111 3112 3112 3112 3113 3115 3116 3114 3114 3115 3117 3115 3115 3115 3114 3113 3113 3113 3112 3112 3111 3110 3109 3109 3106 3104 3103 3100 3099 3097 3094 3091 3087 3082 3083 3080 3078 3078 3076 3076 3074 3069
3100 3100 3099 3099 3099 3100 3101 3102 3102 3103 3104 3108 3108 3104 3103 3105 3107 3108 3108 3105 3105 3107 3107 3107 3106 3106 3105 3104 3103 3101 3100 3099 3098 3095 3094 3092 3088 3088 3086 3082 3080 3074 3072 3073 3073 3072 3067
3090 3090 3089 3089 3089 3090 3090 3091 3092 3094 3094 3097 3096 3094 3094 3095 3097 3099 3100 3097 3098 3099 3101 3100 3098 3100 3100 3100 3097 3096 3096 3095 3094 3092 3090 3088 3084 3082 3078 3076 3073 3069 3065 3065 3064 3063 3064
3082 3081 3080 3080 3080 3079 3080 3081 3083 3083 3084 3085 3086 3086 3086 3084 3089 3090 3090 3086 3090 3095 3094 3094 3093 3096 3095 3093 3095 3092 3091 3090 3090 3088 3086 3084 3080 3078 3069 3068 3067 3062 3059 3057 3055 3056 3055
3075 3073 3072 3072 3071 3071 3071 3072 3073 3074 3074 3073 3073 3075 3076 3070 3076 3079 3078 3080 3082 3087 3084 3088 3087 3089 3085 3088 3088 3087 3087 3086 3085 3084 3082 3080 3076 3076 3068 3064 3062 3056 3055 3053 3052 3053 3053
3067 3066 3065 3063 3063 3062 3062 3063 3063 3064 3065 3064 3064 3066 3067 3057 3062 3062 3069 3073 3074 3078 3076 3080 3082 3080 3079 3082 3081 3080 3080 3080 3079 3078 3077 3076 3074 3074 3068 3064 3063 3058 3055 3053 3051 3051 3050
3058 3058 3056 3055 3054 3053 3053 3053 3054 3055 3055 3054 3054 3057 3056 3047 3051 3048 3057 3059 3064 3066 3067 3069 3071 3072 3073 3074 3075 3074 3072 3070 3070 3070 3069 3070 3071 3070 3068 3065 3060 3054 3052 3052 3050 3050 3049
3053 3051 3050 3049 3047 3046 3044 3043 3044 3045 3046 3043 3043 3045 3045 3041 3021 3041 3046 3048 3049 3054 3058 3057 3060 3062 3067 3067 3066 3063 3064 3064 3062 3061 3063 3063 3064 3066 3064 3064 3058 3053 3051 3050 3049 3048 3046
3045 3043 3042 3041 3039 3038 3036 3034 3034 3033 3034 3034 3032 3033 3033 3026 3016 3030 3027 3034 3040 3045 3044 3051 3047 3052 3056 3055 3055 3055 3055 3058 3055 3054 3056 3056 3057 3056 3058 3058 3051 3046 3047 3047 3049 3049 3044
3036 3035 3033 3031 3030 3028 3027 3025 3024 3022 3022 3022 3020 3020 3021 3015 3002 3013 3017 3017 3026 3031 3036 3039 3043 3039 3042 3044 3045 3045 3044 3045 3047 3045 3045 3048 3049 3049 3051 3053 3046 3043 3043 3044 3041 3040 3041
3026 3025 3023 3021 3020 3017 3015 3014 3013 3012 3010 3008 3005 3006 3007 3003 2990 2995 2998 2999 3008 3016 3025 3027 3026 3028 3030 3032 3032 3035 3035 3035 3035 3037 3038 3041 3039 3039 3042 3038 3037 3036 3037 3036 3034 3033 3032
Wind_Speed
3 3 4 4 5 6 7 8 10 12 13 13 12 12 13 13 12 9 9 8 8 16 19 21 24 24 25 24 21 19 17 14 17 20 22 25 16 12 6 11 13 14 14 15 17 17 20
2 1 2 3 5 6 6 8 9 11 12 13 13 13 12 12 12 11 9 8 7 13 18 19 23 21 22 21 20 18 17 16 19 18 20 24 23 12 9 10 10 12 16 15 17 22 19
2 0 2 3 4 5 7 8 9 10 11 13 13 12 13 12 12 12 9 10 7 9 16 18 21 18 21 22 20 20 17 18 18 17 18 19 22 21 15 9 8 15 17 16 12 11 12
2 1 2 3 4 5 7 9 10 10 11 11 13 13 13 13 13 12 10 8 7 7 12 17 19 17 20 22 20 20 20 19 15 16 17 16 17 19 23 19 13 15 11 13 13 13 12
2 2 3 4 5 6 8 9 10 11 11 11 12 13 13 13 13 13 11 9 8 6 8 14 16 13 19 19 17 20 20 19 17 16 15 16 17 21 22 23 16 18 13 17 20 9 12
3 3 3 3 4 6 7 9 11 12 12 11 11 12 13 13 12 13 12 11 10 8 6 11 12 12 20 18 17 17 17 17 18 16 17 20 22 20 19 19 20 18 17 19 22 21 12
5 5 4 4 4 5 7 9 11 12 13 13 12 12 12 14 13 13 14 13 11 8 5 8 13 13 15 16 16 15 15 17 15 18 18 16 16 14 21 19 15 14 14 21 22 25 14
8 7 6 6 6 6 7 9 10 12 13 13 13 13 13 13 14 15 14 14 12 10 6 7 12 13 15 16 15 15 16 15 15 15 16 15 12 17 18 17 15 17 20 20 16 18 20
11 10 9 8 8 8 9 9 10 11 12 12 12 12 12 14 15 16 16 17 12 11 7 5 14 13 16 16 14 16 15 16 16 15 15 12 12 17 16 17 17 18 17 21 19 17 20
13 12 12 11 11 11 10 10 11 10 10 11 11 12 12 13 14 16 17 18 11 10 3 8 13 11 17 17 10 17 15 17 17 19 19 9 13 17 18 14 18 22 18 24 21 15 14
16 15 14 14 14 13 14 13 12 12 12 11 11 11 11 12 13 15 17 19 12 6 3 14 14 16 17 15 16 12 17 18 18 15 17 11 16 16 13 15 18 21 25 22 20 13 17
19 18 18 18 17 17 16 16 15 15 14 13 12 12 12 12 13 13 15 17 13 5 3 9 15 18 16 17 16 14 16 14 17 19 15 19 16 11 14 14 14 21 27 19 7 8 3
22 21 21 21 21 20 20 19 18 17 17 16 15 15 13 12 12 13 13 14 7 2 15 9 18 18 12 15 16 15 16 13 13 16 23 17 9 12 13 18 16 19 19 7 4 1 2
23 24 24 24 24 24 23 23 22 21 20 20 18 17 16 15 14 13 12 13 5 5 11 15 17 13 10 15 15 16 16 10 13 13 18 13 11 15 20 18 16 9 10 4 4 2 7
27 27 27 27 26 26 26 25 25 24 24 23 23 21 18 17 16 15 13 8 5 9 12 15 15 10 12 17 14 14 14 8 10 11 11 10 8 18 15 20 13 8 6 11 5 10 3
30 31 31 30 30 30 29 28 27 27 26 26 25 25 22 19 18 17 17 17 15 15 16 15 12 8 12 13 13 14 10 8 14 10 16 9 15 11 20 12 11 11 9 6 5 4 5
34 34 35 34 34 34 34 32 31 29 29 28 28 29 27 22 21 19 20 21 19 17 17 14 15 14 13 13 13 13 5 13 8 15 17 14 8 18 20 9 17 8 5 6 7 3 1
41 40 40 40 39 39 37 37 36 34 32 31 31 31 26 24 21 19 22 22 22 23 20 20 19 16 13 12 14 9 10 12 14 17 16 10 10 15 18 14 8 9 7 7 5 6 9
39 40 41 42 43 43 43 42 41 39 36 34 34 36 33 31 33 32 32 31 28 26 24 23 20 18 18 15 9 12 11 13 13 15 11 15 6 11 4 6 9 17 13 15 11 8 12
34 35 34 36 38 40 44 45 45 43 41 38 37 38 36 37 37 36 34 37 36 30 27 25 24 24 21 18 16 11 17 12 15 15 15 16 13 12 14 22 25 30 29 24 18 8 9
31 33 33 33 33 34 35 37 38 41 42 42 41 43 41 35 31 27 22 31 30 31 29 28 25 21 20 20 21 19 16 16 15 16 15 13 19 20 23 25 28 27 23 20 19 23 17
30 31 33 34 34 34 33 32 33 34 34 40 40 41 42 47 42 39 39 42 38 36 35 30 31 27 27 26 25 20 22 20 17 18 18 20 15 21 32 19 16 26 31 29 24 21 25
27 28 29 30 31 33 33 32 29 30 33 35 41 40 38 52 47 44 45 45 44 37 41 38 36 32 32 29 22 24 24 21 21 22 22 22 15 13 13 17 26 15 9 11 8 9 7
29 30 31 30 30 30 31 32 33 30 31 36 37 31 34 51 47 53 48 35 37 31 40 37 32 25 31 27 24 24 24 25 25 24 24 24 20 11 15 15 3 8 15 14 11 12 11
34 33 33 33 33 34 33 32 30 30 33 36 39 38 39 48 46 51 39 45 45 39 39 40 37 36 33 30 25 26 24 23 26 26 21 19 18 9 6 5 17 10 11 9 7 9 9
30 30 31 31 32 34 35 36 33 31 33 38 41 40 45 52 63 52 48 44 39 41 43 45 44 41 34 32 29 24 15 17 10 7 14 14 13 14 7 5 4 9 12 10 9 12 10
28 28 28 28 29 30 33 34 35 35 35 38 41 41 45 53 60 57 54 41 36 41 39 35 40 38 37 40 36 29 26 22 17 18 17 16 16 22 22 10 10 15 20 20 10 10 10
27 27 28 28 26 26 27 31 33 34 36 38 43 42 42 49 60 56 56 54 52 35 38 40 36 36 32 33 32 29 23 26 27 26 23 21 13 14 13 10 12 10 16 19 19 20 19
27 26 26 26 26 29 29 29 31 32 35 37 44 45 41 42 62 52 49 54 59 45 35 38 41 34 23 34 37 30 24 23 29 24 26 23 26 19 16 11 22 26 24 26 27 29 30
Wind_Direction
124 92 70 51 43 35 28 19 15 9 8 10 6 7 6 4 358 353 354 341 342 356 359 3 9 11 10 19 8 4 9 16 356 3 8 8 360 337 313 298 282 285 286 261 264 266 253
136 88 50 22 12 12 14 8 1 359 358 359 1 1 3 1 358 353 348 343 331 351 359 0 6 10 10 18 7 1 7 7 3 5 11 14 15 8 342 342 305 277 292 278 272 276 266
170 329 356 354 352 347 350 350 350 348 350 354 357 359 358 359 358 354 349 349 328 338 355 358 1 7 5 16 8 3 1 3 9 9 9 10 10 12 354 335 290 310 313 319 331 309 280
225 289 314 324 326 330 335 339 341 342 343 350 353 356 359 358 357 355 349 343 335 318 345 355 357 2 11 12 6 4 5 1 6 11 8 9 8 9 20 14 0 320 317 308 321 308 285
247 276 311 323 329 334 335 338 341 345 345 345 352 354 357 357 356 356 351 338 338 316 329 347 352 356 9 7 3 7 7 6 3 1 7 10 6 10 11 354 0 359 309 322 314 284 286
247 263 279 306 328 336 337 339 341 343 343 343 347 352 354 355 354 353 353 344 333 327 318 341 353 358 356 0 2 3 9 6 4 4 4 10 2 360 351 344 325 323 327 323 316 318 275
247 257 265 284 307 323 333 339 345 345 343 342 339 345 350 353 350 352 349 348 337 343 316 331 342 346 345 350 356 358 0 3 4 2 6 353 352 346 341 337 328 316 317 310 318 340 309
248 254 267 283 295 308 320 331 341 346 344 343 340 341 343 350 352 348 350 350 346 334 317 332 344 339 344 343 347 2 356 354 353 355 3 336 324 325 337 340 339 328 312 315 322 328 317
256 262 267 275 283 294 308 320 328 337 343 342 341 340 339 341 350 350 349 350 346 337 309 341 350 346 344 342 338 345 346 345 349 347 344 319 337 335 332 334 321 329 302 321 321 328 323
265 268 273 277 282 288 294 303 313 322 331 337 339 339 335 337 339 350 350 351 349 348 309 357 349 348 347 339 340 336 339 338 341 337 339 332 321 333 337 339 315 326 319 320 327 324 315
270 272 274 278 281 284 288 292 300 309 318 326 332 333 332 332 335 342 344 349 343 352 15 343 348 344 344 342 336 345 334 331 333 332 319 331 310 322 332 333 328 327 335 327 316 326 318
270 273 276 276 277 280 283 287 291 297 306 315 320 325 329 329 326 330 338 342 336 337 305 338 341 341 345 346 348 340 338 335 333 339 341 335 323 318 329 346 341 339 344 343 302 307 299
270 271 273 274 276 276 279 281 282 286 292 299 309 315 318 321 321 319 326 337 319 329 336 332 334 337 341 347 347 345 342 338 339 334 344 351 335 328 326 333 345 336 356 333 347 317 239
268 272 274 276 277 277 275 276 278 280 282 288 295 302 311 314 315 313 311 324 288 302 325 331 335 337 345 352 343 341 343 351 332 339 334 333 330 323 328 331 334 360 8 6 306 351 294
268 266 267 268 270 272 275 274 274 276 279 283 287 291 299 303 306 305 302 297 273 298 315 326 334 342 343 336 346 340 344 329 339 342 346 327 305 317 332 334 341 342 355 332 280 307 289
264 268 270 272 273 274 272 272 274 275 275 277 280 283 287 291 292 292 289 282 279 292 294 306 322 317 324 318 334 334 336 322 331 336 342 312 307 334 339 350 359 358 3 359 340 339 325
263 262 265 268 269 270 272 272 272 271 275 276 280 282 286 286 282 280 276 279 284 289 289 287 295 299 310 321 328 331 314 321 324 330 332 326 314 320 334 321 322 340 17 346 310 253 250
265 266 266 267 267 268 267 269 271 271 271 272 275 277 277 278 277 270 272 277 282 286 282 279 281 285 286 304 314 310 309 315 321 325 327 325 299 299 331 296 322 351 338 356 322 323 294
271 270 270 269 268 269 268 268 269 269 268 269 270 272 269 271 271 274 276 277 277 276 276 271 273 276 281 288 293 298 303 317 319 322 317 318 306 309 343 298 327 332 316 319 317 288 265
275 276 274 272 270 268 267 267 267 268 268 267 269 270 268 268 267 270 272 274 277 275 271 269 267 269 266 280 277 275 296 299 313 317 310 307 288 276 266 287 299 302 302 295 282 252 272
285 284 282 280 276 274 270 268 266 265 266 266 263 264 266 262 262 269 262 265 265 271 271 268 263 260 266 273 274 279 284 287 301 312 311 300 291 303 295 296 302 296 298 304 270 260 254
284 282 281 281 282 282 282 277 272 269 266 263 260 265 262 264 262 260 262 265 265 264 265 264 270 278 276 270 276 275 279 290 296 304 303 300 290 303 305 324 303 297 302 296 282 267 254
285 282 282 282 282 282 283 283 278 268 264 260 263 259 262 264 261 259 259 262 267 269 265 266 272 270 266 273 270 264 271 275 279 289 291 291 296 310 291 307 314 310 349 325 286 262 256
289 289 289 288 285 282 278 275 275 274 267 262 256 255 257 263 263 262 257 258 260 261 268 267 266 258 264 272 268 264 269 270 273 277 278 265 277 289 288 329 347 314 310 308 278 280 261
295 293 291 290 289 287 282 276 271 267 266 263 260 248 247 259 263 262 263 261 253 250 252 262 257 257 260 259 264 273 273 271 270 265 253 259 249 255 263 282 294 296 296 289 267 287 293
289 287 284 282 279 277 279 280 275 265 261 261 259 255 252 252 259 260 257 256 260 256 256 258 258 258 253 251 260 246 239 260 245 221 222 244 235 221 218 240 250 289 293 296 292 266 277
290 289 287 283 278 274 273 275 275 272 264 259 258 255 253 255 264 253 251 259 263 255 252 252 253 254 251 251 246 240 242 239 236 234 229 225 227 228 234 246 261 288 286 275 239 258 231
287 292 296 295 290 283 277 276 276 273 267 262 258 258 254 256 264 258 258 256 245 245 244 241 243 240 237 230 231 235 238 239 233 238 235 239 223 218 214 222 254 316 294 257 278 261 248
292 300 305 304 300 302 299 289 283 281 277 271 263 261 259 256 263 264 260 258 254 243 238 237 235 240 246 239 237 233 234 229 230 230 234 227 234 244 226 259 289 303 299 284 279 288 260